Location: ????? ???????
(25.7275°N, 32.5929°E)
Time: 11:28:17
(UTC+00:00)

COSMOS 2428 - Pass Details

Date: 02 March 2021
Orbit: 845 x 858 km, 70.9° (Epoch: 16 April)

Event Time Altitude Azimuth Distance (km) Brightness Sun altitude
Rises 17:40:39 0° 199° (SSW) 3,389 6.0 -25.3°
Reaches altitude 10° 17:43:05 10° 199° (SSW) 2,456 5.3 -25.8°
Maximum altitude 17:48:44 85° 288° (WNW) 852 2.6 -27.1°
Enters shadow 17:50:26 48° 12° (NNE) 1,100 3.1 -27.4°
